Weather History for Kansas City, MO

Change the Weather History Date:

Friday, October 7, 2011

  Actual Average Record
Temperature  
Mean Temperature 76 °F -  
Max Temperature 84 °F 69 °F 84 °F (1997)
Min Temperature 69 °F 49 °F 30 °F (2000)
Cooling Degree Days 10    
Growing Degree Days 26 (Base 50)    
Moisture  
Dew Point 53 °F    
Average Humidity 45    
Maximum Humidity 51    
Minimum Humidity 39    
Precipitation  
Precipitation 0.00 in - - ()
Sea Level Pressure  
Sea Level Pressure 30.03 in    
Wind  
Wind Speed 12 mph (SSE)    
Max Wind Speed 23 mph    
Max Gust Speed 30 mph    
Visibility 10 miles    
Events      
Averages and records for this station are not official NWS values.
T = Trace of Precipitation, MM = Missing Value Source: NWS Daily Summary

Daily Weather History Graph

Daily Weather History Graph

Search for Another Location

Airport:

Trip Planner

Search our weather history database for the weather conditions in past years. The results will help you decide how hot, cold, wet, or windy it might be!

Date:

Astronomy

Oct. 07, 2011 Rise Set
Actual Time 7:19 AM CDT 6:51 PM CDT
Civil Twilight 6:53 AM CDT 7:18 PM CDT
Nautical Twilight 6:22 AM CDT 7:49 PM CDT
Astronomical Twilight 5:51 AM CDT 8:20 PM CDT
Moon 4:34 PM CDT (10/7) 3:11 AM CDT (10/7)
Length of Visible Light 12h 25m
Length of Day
11h 32m
Waxing Gibbous, 83% of the Moon is Illuminated
Oct 7
Waxing Gibbous
Oct 11
Full
Oct 19
Last Quarter
Oct 26
New
Nov 2
First Quarter

Hourly Weather History & Observations

Time (CDT) Temp. Heat Index Dew Point Humidity Pressure Visibility Wind Dir Wind Speed Gust Speed Precip Events Conditions
12:54 AM 71.1 °F - 50.0 °F 47% 29.99 in 10.0 mi SSE 9.2 mph - N/A   Clear
1:54 AM 70.0 °F - 48.9 °F 47% 29.99 in 10.0 mi SSE 11.5 mph 19.6 mph N/A   Clear
2:54 AM 69.1 °F - 48.9 °F 49% 30.00 in 10.0 mi South 11.5 mph 19.6 mph N/A   Clear
3:54 AM 69.1 °F - 48.9 °F 49% 30.00 in 10.0 mi SSE 11.5 mph 17.3 mph N/A   Clear
4:54 AM 69.1 °F - 50.0 °F 51% 30.01 in 10.0 mi SSE 11.5 mph 21.9 mph N/A   Scattered Clouds
5:54 AM 69.1 °F - 50.0 °F 51% 30.03 in 10.0 mi SSE 11.5 mph 20.7 mph N/A   Clear
6:54 AM 70.0 °F - 50.0 °F 49% 30.04 in 10.0 mi South 13.8 mph 25.3 mph N/A   Clear
7:54 AM 70.0 °F - 50.0 °F 49% 30.05 in 10.0 mi South 15.0 mph 21.9 mph N/A   Mostly Cloudy
8:54 AM 72.0 °F - 51.1 °F 48% 30.06 in 10.0 mi South 11.5 mph 23.0 mph N/A   Partly Cloudy
9:54 AM 75.0 °F - 53.1 °F 46% 30.08 in 10.0 mi South 11.5 mph 29.9 mph N/A   Clear
10:54 AM 78.1 °F - 55.0 °F 45% 30.08 in 10.0 mi South 16.1 mph 28.8 mph N/A   Clear
11:54 AM 81.0 °F 81.0 °F 57.0 °F 44% 30.08 in 10.0 mi South 23.0 mph 29.9 mph N/A   Clear
12:54 PM 82.9 °F 82.6 °F 57.9 °F 42% 30.05 in 10.0 mi SSW 17.3 mph 28.8 mph N/A   Partly Cloudy
1:54 PM 82.9 °F 82.6 °F 57.9 °F 42% 30.04 in 10.0 mi South 17.3 mph 28.8 mph N/A   Mostly Cloudy
2:54 PM 82.9 °F 82.8 °F 59.0 °F 44% 30.03 in 10.0 mi South 17.3 mph 25.3 mph N/A   Overcast
3:54 PM 82.0 °F 82.0 °F 57.9 °F 44% 30.02 in 10.0 mi SSW 17.3 mph 25.3 mph N/A   Overcast
4:54 PM 82.9 °F 82.6 °F 57.9 °F 42% 30.01 in 10.0 mi South 11.5 mph 23.0 mph N/A   Overcast
5:54 PM 82.0 °F 81.4 °F 55.0 °F 39% 30.00 in 10.0 mi SSE 9.2 mph 20.7 mph N/A   Clear
6:54 PM 80.1 °F 80.0 °F 54.0 °F 40% 30.01 in 10.0 mi SSE 8.1 mph 17.3 mph N/A   Clear
7:54 PM 78.1 °F - 54.0 °F 43% 30.03 in 10.0 mi SSE 11.5 mph 19.6 mph N/A   Clear
8:54 PM 78.1 °F - 52.0 °F 40% 30.04 in 10.0 mi SSE 11.5 mph 21.9 mph N/A   Clear
9:54 PM 75.0 °F - 51.1 °F 43% 30.04 in 10.0 mi SE 11.5 mph - N/A   Clear
10:54 PM 73.9 °F - 51.1 °F 45% 30.05 in 10.0 mi SSE 12.7 mph 20.7 mph N/A   Clear
11:54 PM 73.9 °F - 50.0 °F 43% 30.05 in 10.0 mi SSE 11.5 mph 18.4 mph N/A   Clear